カタログに戻る

DELTA 1 DEB

運用中LEO
NORAD 7195·DEBRIS·🇺🇸 United States

打ち上げ Nov 6, 1973 から Vandenberg Space Force Base

Loading…

次のパス (今後24時間)

TLE

最新Source: Space-Track

元期: Sep 14, 2026, 05:59 UTC

1 07195U 73086FD  26257.24965359  .00000859  00000-0  10250-2 0  9993
2 07195 103.1778 252.0129 0298380 158.1324 203.2847 13.54373626566627

AllMySatでDELTA 1 DEBをリアルタイム追跡

Download on the App Store